GFSNIL_850_spd_132.txt.gz
Wind_Speed
17 15 13 12 11 11 12 11 11 12 11 11 11 11 12 8 8 8 5 7 6 3
19 18 14 14 14 13 12 11 13 11 12 12 12 12 11 10 9 10 9 8 9 7
17 18 16 16 16 14 13 16 13 13 12 12 13 12 13 11 11 11 10 10 11 10
18 17 16 17 16 17 15 14 14 13 13 13 14 14 13 13 12 12 11 11 12 11
18 17 17 16 14 14 14 16 14 15 14 15 14 14 15 14 13 13 13 13 12 13
20 19 18 18 16 15 15 16 15 15 17 17 16 18 18 17 14 14 14 14 14 14
21 20 19 18 18 17 18 18 17 17 16 17 17 15 14 14 15 14 14 15 16 14
20 19 19 19 19 19 19 18 18 16 16 16 14 14 16 17 18 16 15 15 16 15
19 22 22 22 23 22 22 20 22 23 21 17 14 18 17 15 16 17 19 16 15 16
22 25 28 28 27 25 21 19 19 19 19 21 19 21 17 17 17 15 17 19 18 16
17 20 22 27 31 30 29 21 19 18 19 20 21 23 21 21 20 21 18 19 19 19
18 21 21 23 25 29 25 24 19 18 19 22 23 25 24 24 24 25 23 21 19 18
7 15 17 18 24 27 29 27 30 24 23 23 21 25 24 26 26 26 26 25 23 21
15 14 13 17 19 23 27 32 29 33 32 26 23 21 19 19 20 21 22 22 24 23

GFSNIL_850_spd_138.txt.gz
Wind_Speed
22 17 16 14 12 14 16 9 18 12 9 9 5 6 11 13 6 6 8 7 11 8
23 18 14 13 12 15 7 9 11 9 6 8 8 9 10 8 10 9 11 10 10 7
22 25 19 17 15 16 10 13 13 13 10 11 11 12 14 11 7 12 12 13 9 11
19 16 20 19 15 23 17 13 11 16 17 14 15 13 16 14 17 10 18 12 14 13
22 18 18 16 20 17 19 22 20 12 14 15 14 14 17 17 17 13 14 12 10 13
24 22 21 21 17 14 14 15 15 17 17 16 15 16 18 18 16 18 16 14 14 13
24 22 21 19 18 21 16 15 13 16 17 17 17 18 18 17 17 17 20 15 15 16
25 23 20 20 19 16 17 17 16 15 17 16 15 17 17 17 19 17 16 18 17 16
23 22 24 24 23 23 22 23 21 16 15 17 16 17 15 17 18 15 16 19 19 20
21 23 24 24 24 23 22 21 21 21 21 22 21 20 19 18 20 20 19 17 15 16
16 16 18 20 20 20 21 21 22 22 21 22 24 22 21 21 23 23 21 18 18 16
17 16 14 16 15 14 16 19 22 23 24 23 23 23 23 21 19 22 23 21 24 24
18 13 14 14 15 13 12 11 16 19 23 25 31 28 28 25 21 22 16 20 23 22
15 15 14 9 3 6 10 15 15 18 20 22 24 25 26 23 23 21 20 21 22 22

GFSNIL_850_spd_141.txt.gz
Wind_Speed
26 23 14 19 16 11 11 12 14 15 10 5 8 10 12 12 13 11 11 9 10 8
26 24 22 19 17 16 13 12 17 18 15 8 9 8 6 9 13 13 8 6 10 10
27 25 23 20 20 18 14 11 9 15 13 11 10 12 11 13 10 12 10 9 13 12
28 25 26 24 23 21 16 14 13 14 12 14 15 16 17 15 13 15 12 16 14 17
23 23 28 25 24 21 24 20 19 15 16 22 18 16 17 17 15 14 17 16 12 10
21 23 21 22 20 20 18 21 22 21 18 16 15 15 14 17 17 14 20 19 14 13
26 24 22 18 19 17 14 15 14 15 16 15 14 15 16 19 18 16 17 18 18 17
26 26 27 24 21 18 18 17 16 14 13 15 16 16 15 15 17 15 14 14 15 17
26 28 26 25 22 19 22 19 16 16 14 15 16 15 14 14 14 14 13 12 13 16
32 32 27 25 25 25 23 20 20 20 18 18 17 16 14 16 15 17 17 16 15 15
13 30 32 30 26 25 24 23 22 20 18 18 19 20 18 19 20 21 20 20 20 21
16 23 25 26 23 23 22 20 20 20 19 20 20 21 22 20 20 22 21 20 23 23
17 23 22 24 25 24 23 16 15 17 17 19 20 22 23 24 23 22 18 20 21 23
22 21 19 21 17 14 12 11 10 11 13 14 15 17 17 18 20 20 20 20 22 23

GFSNIL_850_spd_147.txt.gz
Wind_Speed
30 27 22 20 20 20 20 15 13 14 14 12 11 11 12 13 10 10 11 10 9 9
33 28 26 21 20 21 21 20 16 17 11 12 11 12 13 13 13 13 14 14 14 12
36 32 29 24 23 21 19 16 18 17 13 14 13 12 13 13 12 12 14 17 15 15
37 33 33 30 26 24 23 21 19 17 18 22 22 16 16 17 16 15 13 14 17 17
38 35 33 32 30 26 25 22 21 19 17 15 20 18 17 17 17 18 18 15 17 17
38 38 37 32 32 30 29 27 22 21 21 17 18 20 20 21 19 20 20 19 19 18
34 35 37 36 32 32 32 30 27 25 24 21 20 20 20 22 24 23 20 20 19 18
32 29 31 34 34 33 33 33 28 27 25 26 25 25 23 23 22 21 20 20 20 19
33 29 27 30 30 31 29 32 30 31 29 26 24 21 20 20 21 21 20 20 19 19
26 29 31 29 30 30 29 28 29 28 28 28 27 23 20 20 22 22 20 19 18 18
15 13 16 26 30 32 33 31 30 30 30 29 27 25 22 20 21 21 20 20 19 19
11 11 16 21 23 27 33 33 30 29 31 30 26 26 26 26 25 24 24 22 22 22
23 23 23 21 24 27 37 33 29 29 29 31 30 30 29 27 26 27 27 26 25 23
12 17 17 17 16 15 20 26 24 29 32 34 33 34 32 31 30 30 29 29 28 26